Tracking 19908 objects as of 19-Oct-2019
HD Live streaming from Space Station
objects crossing your sky now

FENGYUN 1C DEB

Track FENGYUN 1C DEB now!
10-day predictions


NORAD ID: 32098
Int'l Code: 1999-025CQQ
Perigee: 696.7 km
Apogee: 994.7 km
Inclination: 98.7 °
Period: 101.7 minutes
Semi major axis: 7216 km
RCS: 0.0108 m2 (small)
Launch date: May 10, 1999
Source: People's Republic of China (PRC)
Launch site: Taiyaun Space Center, China (TSC)

Note: This is SATELLITE DEBRIS
aabbcc
Your satellite tracking list
Your tracking list is empty




NASA's NSSDC Master Catalog

Two Line Element Set (TLE):
1 32098U 99025CQQ 19285.34260604  .00000136  00000-0  73425-4 0  9992
2 32098  98.6776 314.2922 0206429 127.6543 234.3559 14.16105344629907
Source of the keplerian elements: AFSPC